Starlink 34479

operational
NORAD ID: 64365 Int'l Des: 2025-126 Owner: SPXS Country: US Constellation: starlink
LEOCIRCULAR

关于 Starlink 34479

正在加载描述...

实时位置

正在加载3D地球...

即将过境

高度历史

Altitude vs Time

uPlot chart will show altitude changes over time

两行轨道根数

1 64365U 25126X 26063.12814958 .00009927 00000-0 83807-3 0 9991
2 64365 70.0008 48.6807 0005598 281.7121 78.3409 14.98346873 39841
Epoch: Mar 4, 2026 • Age: 18 hours

当前状态

高度 585.3 km
速度 7.57 km/s
星下点 59.67°N, 116.37°E
发射日期 Jun 13, 2025
运行时间 0.7 years
类型 internet

技术详情

分类 Payload
质量 575.00 kg
干质量 530.00 kg
总质量 575.00 kg
长度 0.30 m
直径 4.10 m
跨度 29.00 m
形状 Box + pan
制造商 SPXS
平台类型 Starlink V2MO
阶段状态 In Orbit
所有者/国家 SPXS/US

大型星座

Loading constellations...